User: anonymous   Login
Location: Hale Hill Observatory
(39.3806°N, 86.8431°W)
Time: 15:35:10
(UTC-05:00)
Language:

Cosmos 990 Rocket - Orbit

View from above orbital plane
View from above orbital plane
View from above satellite
View from above satellite

Ground track
Ground track

The orbit data is extracted from the following two-line orbital elements,

1 10677U 78019B   17058.40925026  .00000058  00000-0  26730-4 0  9990
2 10677  74.0388 144.2391 0016422 247.4552 112.4865 14.40010089 46690
Epoch (UTC): 27 February 2017 09:49:19
Eccentricity: 0.0016422
inclination: 74.0388°
perigee height: 747 km
apogee height: 770 km
right ascension of ascending node: 144.2391°
argument of perigee: 247.4552°
revolutions per day: 14.40010089
mean anomaly at epoch: 112.4865°
orbit number at epoch: 4669

The dashed part of the orbit path shows where the satellite is in the earth's shadow,  

DLR